[[{"header":{"parameterUnit":"m.s-1","parameterCategory":1,"la1":30.2991,"la2":30.254,"lo1":-89.0895,"lo2":-89.0444,"dy":0.0017,"dx":0.0017,"nx":28,"ny":28,"refTime":"2023-10-31T03:00:00:Z","depth":0,"parameterNumber":2,"parameterNumberName":"U-component_of_WINDS"},"data":[0,0,0,0,0,0,0,0,0,0,0,0,0,0,0,0,0,0,0,0,0,0,0,0,0,0,0,0,0,0,0,0,0,0,0,0,0,0,0,0,0,0,0,0,0,0,0,0,0,0,0,0,0,0,0,0,0,0,-0.3075,-0.3076,0,-0.3166,-0.3167,-0.3168,-0.3162,-0.316,-0.3159,-0.3158,-0.3254,-0.3258,-0.3261,0,0,0,0,0,0,0,0,0,0,0,0,0,-0.2897,-0.29,-0.3075,-0.3076,-0.3077,-0.3166,-0.3167,-0.3168,-0.3162,-0.316,-0.3158,-0.3157,-0.3253,-0.3257,-0.3262,0,0,0,0,0,0,0,0,0,0,0,0,0,-0.298,-0.2901,-0.3074,-0.3084,-0.3086,-0.3165,-0.3167,-0.3169,-0.3162,-0.316,-0.3158,-0.3156,-0.3251,-0.3257,-0.3262,-0.3339,0,0,-0.328,-0.3282,0,0,0,0,0,0,0,0,-0.2975,-0.2986,-0.3082,-0.3084,-0.3086,-0.315,-0.314,-0.3226,-0.3163,-0.3133,-0.3157,-0.3155,-0.3221,-0.3229,-0.3251,-0.3343,-0.3347,-0.3281,-0.3284,-0.3286,-0.3288,0,0,0,0,0,0,0,-0.2969,-0.2982,-0.3111,-0.3083,-0.3086,-0.3085,-0.3094,-0.3156,-0.3188,-0.3136,-0.3135,-0.3146,-0.3222,-0.3245,-0.3253,-0.3349,-0.328,-0.3285,-0.3289,-0.3291,-0.3508,-0.3511,0,0,0,0,0,0,-0.2961,-0.2978,-0.3108,-0.3114,-0.3024,-0.309,-0.31,-0.3132,-0.3187,-0.3193,-0.3148,-0.3146,-0.3237,-0.3247,-0.3257,-0.335,-0.3286,-0.3292,-0.3295,-0.3506,-0.3509,-0.3512,0,0,0,0,0,0,-0.2957,-0.2973,-0.3104,-0.3046,-0.3062,-0.3095,-0.313,-0.3135,-0.3158,-0.3196,-0.3202,-0.3166,-0.3235,-0.3249,-0.3318,-0.3354,-0.3294,-0.33,-0.3503,-0.3507,-0.351,-0.3538,0,0,0,0,0,0,-0.2952,-0.2971,-0.3001,-0.3046,-0.3065,-0.3164,-0.3132,-0.3138,-0.3168,-0.3166,-0.3215,-0.3221,-0.3235,-0.331,-0.3324,-0.3361,-0.3304,-0.3501,-0.3505,-0.3509,-0.3534,-0.3542,-0.3549,0,0,0,0,0,-0.2946,-0.3005,-0.3002,-0.3018,-0.3102,-0.3166,-0.3177,-0.3191,-0.317,-0.32,-0.3225,-0.3219,-0.3347,-0.3317,-0.3333,-0.3372,-0.3498,-0.3504,-0.3509,-0.3531,-0.3541,-0.3549,0,0,0,0,0,0,-0.2964,-0.3012,-0.3009,-0.3084,-0.3121,-0.3165,-0.3203,-0.3201,-0.3245,-0.3241,-0.3258,-0.3269,-0.3339,-0.3362,-0.3328,-0.3448,-0.342,-0.3429,-0.3431,-0.3441,-0.3448,-0.3442,-0.3309,0,0,0,0,0,-0.2977,-0.3024,-0.3063,-0.3126,-0.3144,-0.317,-0.3199,-0.3206,-0.3245,-0.3261,-0.3291,-0.333,-0.3378,-0.3411,-0.3458,-0.3537,-0.3548,-0.3571,-0.3578,-0.3584,-0.3592,-0.3636,-0.3648,-0.3529,-0.3529,-0.3529,0,0,-0.3004,-0.3036,-0.3065,-0.3131,-0.316,-0.3209,-0.3184,-0.3237,-0.3274,-0.327,-0.3338,-0.336,-0.3405,-0.3479,-0.3514,-0.3501,-0.3627,-0.3591,-0.3595,-0.36,-0.3643,-0.3654,-0.3664,-0.3532,-0.3532,-0.3531,0,0,-0.3079,-0.3107,-0.3163,-0.3193,-0.3237,-0.3253,-0.3267,-0.3311,-0.3325,-0.3393,-0.3391,-0.3435,-0.3519,-0.3551,-0.3578,-0.3663,-0.366,-0.3678,-0.3717,-0.376,-0.3769,-0.3777,-0.3809,-0.382,-0.3685,-0.3685,-0.3685,0,-0.3108,-0.3181,-0.3193,-0.3246,-0.3276,-0.3272,-0.3329,-0.3357,-0.3415,-0.3436,-0.342,-0.3524,-0.3554,-0.3636,-0.3657,-0.3679,-0.3695,-0.3673,-0.3766,-0.3775,-0.3783,-0.3814,-0.3825,-0.3687,-0.3687,-0.3687,-0.3686,0,-0.3215,-0.3266,-0.3306,-0.3361,-0.3394,-0.3449,-0.3469,-0.3502,-0.3506,-0.3524,-0.3593,-0.3628,-0.3682,-0.3702,-0.3707,-0.3785,-0.3776,-0.3763,-0.3735,-0.3796,-0.3825,-0.3837,-0.369,-0.3689,-0.3689,-0.3688,0,0,-0.3307,-0.3366,-0.3381,-0.3405,-0.3453,-0.3493,-0.3547,-0.3599,-0.3628,-0.3667,-0.3714,-0.3784,-0.3772,-0.3803,-0.381,-0.3848,-0.3914,-0.383,-0.3832,-0.3846,-0.4004,-0.4015,-0.4029,-0.3911,-0.3914,-0.3915,-0.4001,0,-0.3388,-0.3485,-0.3496,-0.3583,-0.363,-0.3626,-0.3674,-0.3709,-0.3727,-0.377,-0.379,-0.384,-0.382,-0.3838,-0.3875,-0.3898,-0.3947,-0.3892,-0.3957,-0.3959,-0.3948,-0.4044,-0.4056,-0.4135,-0.4012,-0.4014,-0.4016,0,-0.3497,-0.3538,-0.3629,-0.367,-0.369,-0.3733,-0.3781,-0.3822,-0.3861,-0.3872,-0.3905,-0.3908,-0.3965,-0.3933,-0.4012,-0.3975,-0.4001,-0.4017,-0.402,-0.4029,-0.3993,-0.4057,-0.416,-0.4173,-0.4033,-0.4032,-0.4031,0,-0.3557,-0.3635,-0.37,-0.3721,-0.377,-0.38,-0.3822,-0.3859,-0.3889,-0.3931,-0.3951,-0.3999,-0.4026,-0.4063,-0.4079,-0.4054,-0.4158,-0.4127,-0.417,-0.4169,-0.4194,-0.4193,-0.4306,-0.4207,-0.4207,-0.4207,-0.4207,0,-0.3648,-0.3705,-0.3728,-0.3768,-0.3831,-0.3842,-0.3904,-0.3925,-0.3957,-0.4002,-0.4001,-0.4043,-0.406,-0.4104,-0.4117,-0.4181,-0.4193,-0.4204,-0.4207,-0.4206,-0.4204,-0.4225,-0.4221,-0.421,-0.421,-0.4209,-0.4208,0,-0.3727,-0.3745,-0.3815,-0.3855,-0.3866,-0.3911,-0.3945,-0.3984,-0.4,-0.4056,-0.407,-0.4097,-0.4149,-0.4167,-0.4231,-0.424,-0.4315,-0.4312,-0.4302,-0.4303,-0.4346,-0.4342,-0.4478,-0.4497,-0.4384,-0.4385,-0.4386,0,-0.3786,-0.3829,-0.3872,-0.3901,-0.3924,-0.3971,-0.4002,-0.4014,-0.4046,-0.4093,-0.4126,-0.4178,-0.422,-0.4304,-0.433,-0.4378,-0.4378,-0.4422,-0.4386,-0.4383,-0.4381,-0.4379,-0.4384,-0.443,-0.4431,-0.4432,-0.4433,0,-0.3888,-0.3894,-0.3937,-0.3984,-0.402,-0.4057,-0.4094,-0.4118,-0.4136,-0.4171,-0.4224,-0.4257,-0.4321,-0.4373,-0.4423,-0.4446,-0.4443,-0.4443,-0.4456,-0.4457,-0.4449,-0.4456,-0.4323,-0.4441,-0.444,-0.444,-0.4439,-0.4439,-0.396,-0.3998,-0.4034,-0.4083,-0.4111,-0.4145,-0.4183,-0.4204,-0.4248,-0.4301,-0.4305,-0.4362,-0.44,-0.4466,-0.4491,-0.4536,-0.4524,-0.4542,-0.4548,-0.4552,-0.4556,-0.444,-0.4545,-0.4545,-0.4545,-0.4544,-0.4544,0,-0.4063,-0.4086,-0.413,-0.4181,-0.4219,-0.421,-0.425,-0.4283,-0.4333,-0.4367,-0.4408,-0.4469,-0.4519,-0.4547,-0.4597,-0.4628,-0.4628,-0.4641,-0.464,-0.4646,-0.4564,-0.4548,-0.464,-0.464,-0.464,-0.464,-0.464,-0.464,-0.4122,-0.4186,-0.4196,-0.4275,-0.4297,-0.4353,-0.4376,-0.4407,-0.4435,-0.4503,-0.4544,-0.4561,-0.4593,-0.4645,-0.469,-0.4697,-0.4717,-0.4731,-0.4737,-0.4661,-0.4651,-0.4642,-0.4628,-0.4735,-0.4735,-0.4816,-0.4817,-0.4817]},{"header":{"parameterUnit":"m.s-1","parameterCategory":1,"la1":30.2991,"la2":30.254,"lo1":-89.0895,"lo2":-89.0444,"dy":0.0017,"dx":0.0017,"nx":28,"ny":28,"refTime":"2023-10-31T03:00:00:Z","depth":0,"parameterNumber":3,"parameterNumberName":"V-component_of_WINDS"},"data":[0,0,0,0,0,0,0,0,0,0,0,0,0,0,0,0,0,0,0,0,0,0,0,0,0,0,0,0,0,0,0,0,0,0,0,0,0,0,0,0,0,0,0,0,0,0,0,0,0,0,0,0,0,0,0,0,0,0,-9.5113,-9.5115,0,-9.5317,-9.5319,-9.5321,-9.5207,-9.5202,-9.5196,-9.5191,-9.5392,-9.5403,-9.5413,0,0,0,0,0,0,0,0,0,0,0,0,0,-9.4619,-9.4629,-9.5113,-9.5115,-9.5118,-9.5316,-9.5319,-9.5322,-9.5208,-9.5201,-9.5195,-9.5188,-9.5389,-9.5401,-9.5414,0,0,0,0,0,0,0,0,0,0,0,0,0,-9.4829,-9.4632,-9.5112,-9.5085,-9.5085,-9.5316,-9.5319,-9.5322,-9.521,-9.5201,-9.5193,-9.5185,-9.5385,-9.54,-9.5416,-9.5682,0,0,-9.5464,-9.5471,0,0,0,0,0,0,0,0,-9.4817,-9.4847,-9.5087,-9.5088,-9.5088,-9.5228,-9.5219,-9.5443,-9.5212,-9.5162,-9.5191,-9.5181,-9.5344,-9.5363,-9.5419,-9.5692,-9.57,-9.5466,-9.5475,-9.5482,-9.5487,0,0,0,0,0,0,0,-9.4803,-9.4838,-9.5193,-9.509,-9.5091,-9.5061,-9.5081,-9.5261,-9.5297,-9.5166,-9.5158,-9.5184,-9.5342,-9.5404,-9.5423,-9.5703,-9.5465,-9.5479,-9.5489,-9.5495,-9.6205,-9.6213,0,0,0,0,0,0,-9.4791,-9.4827,-9.5187,-9.5199,-9.4929,-9.5077,-9.51,-9.5191,-9.5295,-9.5303,-9.5191,-9.5178,-9.5381,-9.5405,-9.543,-9.5749,-9.5482,-9.5497,-9.5506,-9.6195,-9.6207,-9.6217,0,0,0,0,0,0,-9.4781,-9.4824,-9.5178,-9.5011,-9.5054,-9.5094,-9.5198,-9.52,-9.5261,-9.5315,-9.532,-9.5248,-9.5375,-9.5407,-9.5621,-9.5755,-9.5504,-9.5519,-9.6184,-9.6199,-9.6212,-9.639,0,0,0,0,0,0,-9.4767,-9.4821,-9.4925,-9.5014,-9.5063,-9.5369,-9.5206,-9.521,-9.529,-9.5275,-9.5369,-9.5377,-9.5371,-9.5598,-9.5637,-9.5772,-9.5531,-9.6173,-9.6191,-9.6207,-9.6373,-9.6409,-9.644,0,0,0,0,0,-9.475,-9.4965,-9.4931,-9.4975,-9.5194,-9.5377,-9.5405,-9.5396,-9.5301,-9.5404,-9.5438,-9.5374,-9.5734,-9.5621,-9.5663,-9.5806,-9.6164,-9.6186,-9.6206,-9.6358,-9.6402,-9.6439,0,0,0,0,0,0,-9.4888,-9.4977,-9.4939,-9.519,-9.5278,-9.5358,-9.5488,-9.5443,-9.5557,-9.5538,-9.552,-9.5542,-9.5765,-9.5806,-9.5679,-9.6069,-9.5934,-9.5964,-9.6034,-9.6077,-9.6109,-9.6095,-9.5544,0,0,0,0,0,-9.4948,-9.5092,-9.516,-9.5375,-9.5421,-9.5448,-9.5527,-9.5513,-9.5601,-9.5637,-9.5686,-9.5773,-9.5905,-9.5993,-9.6117,-9.6378,-9.6396,-9.6496,-9.653,-9.6557,-9.6584,-9.6724,-9.677,-9.6286,-9.6285,-9.6285,0,0,-9.5073,-9.5139,-9.523,-9.5405,-9.547,-9.5618,-9.5479,-9.564,-9.5749,-9.566,-9.5866,-9.5906,-9.6001,-9.6239,-9.6346,-9.628,-9.6721,-9.6583,-9.6605,-9.6617,-9.6751,-9.6796,-9.6837,-9.63,-9.6297,-9.6295,0,0,-9.5376,-9.5441,-9.5628,-9.5697,-9.5799,-9.5815,-9.586,-9.5948,-9.5972,-9.6178,-9.6115,-9.6242,-9.6471,-9.6542,-9.6607,-9.6938,-9.6882,-9.6978,-9.7153,-9.7291,-9.7329,-9.7363,-9.7481,-9.7524,-9.7005,-9.7005,-9.7005,0,-9.5518,-9.574,-9.5728,-9.5896,-9.5974,-9.5903,-9.6091,-9.6158,-9.6295,-9.6349,-9.6273,-9.656,-9.6618,-9.6873,-9.6954,-9.7009,-9.7059,-9.6968,-9.7325,-9.7358,-9.739,-9.7502,-9.7547,-9.7016,-9.7015,-9.7014,-9.7013,0,-9.5909,-9.6064,-9.6202,-9.634,-9.6433,-9.661,-9.6623,-9.6718,-9.6696,-9.672,-9.6931,-9.6999,-9.7136,-9.7195,-9.7174,-9.7447,-9.7403,-9.7327,-9.719,-9.7447,-9.7553,-9.7596,-9.7032,-9.7028,-9.7025,-9.7022,0,0,-9.6306,-9.6435,-9.6486,-9.6548,-9.6656,-9.6774,-9.6946,-9.7084,-9.7166,-9.7262,-9.7406,-9.7602,-9.7532,-9.7607,-9.7593,-9.7713,-9.7972,-9.7622,-9.7624,-9.7685,-9.8277,-9.8334,-9.8385,-9.7935,-9.7943,-9.795,-9.8269,0,-9.6617,-9.6923,-9.6917,-9.7199,-9.7342,-9.7276,-9.7426,-9.7508,-9.7534,-9.7657,-9.7684,-9.7824,-9.7721,-9.7766,-9.7882,-9.7916,-9.809,-9.7892,-9.8067,-9.8074,-9.8048,-9.844,-9.8501,-9.88,-9.831,-9.8317,-9.8322,0,-9.7021,-9.7134,-9.7432,-9.752,-9.7579,-9.7715,-9.784,-9.7959,-9.8049,-9.8059,-9.8144,-9.8111,-9.8284,-9.8143,-9.8381,-9.8247,-9.8317,-9.8344,-9.8356,-9.8372,-9.8215,-9.8468,-9.8895,-9.894,-9.8387,-9.8382,-9.8377,0,-9.7282,-9.7508,-9.7716,-9.777,-9.7877,-9.7974,-9.8022,-9.8104,-9.8187,-9.8296,-9.8349,-9.8475,-9.8545,-9.8642,-9.8644,-9.8541,-9.8885,-9.8743,-9.8897,-9.8898,-9.8974,-9.8969,-9.9419,-9.9018,-9.9017,-9.9016,-9.9015,0,-9.7631,-9.7815,-9.7834,-9.7962,-9.8167,-9.8158,-9.836,-9.8398,-9.8472,-9.8605,-9.8554,-9.8679,-9.8672,-9.8798,-9.88,-9.8997,-9.9028,-9.9041,-9.9039,-9.9046,-9.9045,-9.9093,-9.9073,-9.9028,-9.9026,-9.9023,-9.9021,0,-9.7957,-9.7977,-9.8199,-9.8283,-9.8308,-9.8456,-9.8526,-9.8646,-9.8668,-9.8837,-9.8875,-9.8909,-9.9055,-9.9066,-9.9233,-9.9234,-9.9474,-9.9449,-9.9445,-9.9441,-9.9595,-9.9581,-10.0092,-10.0159,-9.9714,-9.9718,-9.9722,0,-9.8179,-9.832,-9.842,-9.8506,-9.8561,-9.8701,-9.8786,-9.8782,-9.8872,-9.8985,-9.9092,-9.9234,-9.9347,-9.9583,-9.9621,-9.9749,-9.9727,-9.9897,-9.9746,-9.9749,-9.9731,-9.9723,-9.9737,-9.9927,-9.9932,-9.9936,-9.9939,0,-9.8571,-9.8574,-9.87,-9.8831,-9.8935,-9.9036,-9.9131,-9.9204,-9.921,-9.9314,-9.9464,-9.9552,-9.9725,-9.9866,-9.9991,-10.0038,-9.9991,-9.9987,-10.0029,-10.0039,-10.0031,-10.0038,-9.9527,-9.9975,-9.9971,-9.9969,-9.9967,-9.9965,-9.8853,-9.8976,-9.9066,-9.9207,-9.9279,-9.9369,-9.9487,-9.9524,-9.965,-9.9792,-9.9781,-9.9947,-10.0032,-10.0196,-10.0253,-10.0382,-10.0324,-10.0385,-10.0401,-10.0417,-10.0434,-10.001,-10.0404,-10.0403,-10.0402,-10.0401,-10.04,0,-9.9243,-9.9298,-9.9429,-9.9565,-9.9676,-9.9623,-9.9725,-9.9821,-9.9969,-10.0054,-10.0167,-10.034,-10.0476,-10.0525,-10.0658,-10.0751,-10.0732,-10.0786,-10.078,-10.0791,-10.0477,-10.0428,-10.0799,-10.0799,-10.0799,-10.0799,-10.0799,-10.0799,-9.946,-9.9665,-9.9679,-9.9919,-9.9971,-10.0136,-10.0199,-10.0281,-10.0349,-10.0545,-10.0659,-10.0691,-10.0761,-10.0898,-10.102,-10.1031,-10.1082,-10.1146,-10.1147,-10.0853,-10.0813,-10.0775,-10.0728,-10.1157,-10.1157,-10.1451,-10.1453,-10.1455]}]]